N8YZF Weather Reports


Display with metric or nautical units.
time (UTC)temp
F
wind
direction
speed
MPH
gust
MPH
rain 1hr
in
rain 24hr
in
rain mn
in
humidity
%
barometer
mb
20260509004403 57 207 2.0 4.0 0.00 0.00 0.00 35 1003.4
20260509003857 58 207 2.0 8.0 0.00 0.00 0.00 34 1003.4
20260509003356 58 172 3.0 8.0 0.00 0.00 0.00 34 1003.4
20260509003154 58 248 2.0 7.0 0.00 0.00 0.00 33 1003.4
20260509002651 58 213 2.0 7.0 0.00 0.00 0.00 33 1003.5
20260509001844 59 223 3.0 7.0 0.00 0.00 0.00 33 1003.5
20260509001342 59 232 3.0 6.0 0.00 0.00 0.00 32 1003.5
20260509000843 60 215 2.0 5.0 0.00 0.00 0.00 31 1003.6
20260509000607 60 215 2.0 5.0 0.00 0.00 0.00 31 1003.6
20260508235807 60 278 3.0 7.0 0.00 0.00 0.00 30 1003.6
20260508235310 61 266 3.0 7.0 0.00 0.00 0.00 31 1003.6
20260508234808 61 248 3.0 8.0 0.00 0.00 0.00 30 1003.6
20260508234608 61 258 4.0 8.0 0.00 0.00 0.00 30 1003.7
20260508233802 61 220 3.0 9.0 0.00 0.00 0.00 29 1003.7
20260508233301 62 221 3.0 9.0 0.00 0.00 0.00 30 1003.7
20260508232803 62 286 3.0 7.0 0.00 0.00 0.00 30 1003.8
20260508232307 62 264 3.0 8.0 0.00 0.00 0.00 30 1003.8
20260508231802 62 287 3.0 8.0 0.00 0.00 0.00 29 1003.8
20260508231604 62 247 4.0 12.0 0.00 0.00 0.00 29 1003.8
20260508230802 63 256 3.0 12.0 0.00 0.00 0.00 28 1003.9
20260508230303 63 240 2.0 6.0 0.00 0.00 0.00 29 1003.9
20260508230056 62 187 3.0 8.0 0.00 0.00 0.00 30 1003.8
20260508225306 62 291 4.0 8.0 0.00 0.00 0.00 28 1003.8
20260508224800 63 238 3.0 8.0 0.00 0.00 0.00 27 1003.9
20260508224603 63 281 2.0 5.0 0.00 0.00 0.00 29 1003.9
20260508223747 63 221 3.0 7.0 0.00 0.00 0.00 28 1003.9
20260508223247 63 277 3.0 8.0 0.00 0.00 0.00 28 1003.9
20260508222748 64 217 3.0 8.0 0.00 0.00 0.00 27 1004.0
20260508222247 64 207 3.0 11.0 0.00 0.00 0.00 28 1004.0
20260508222040 64 220 3.0 11.0 0.00 0.00 0.00 27 1004.0
20260508221243 64 306 1.0 5.0 0.00 0.00 0.00 29 1004.1
20260508220743 63 348 1.0 4.0 0.00 0.00 0.00 30 1004.1
20260508220540 63 10 2.0 15.0 0.00 0.00 0.00 31 1004.1
20260508215704 63 247 3.0 15.0 0.00 0.00 0.00 29 1004.2
20260508215205 63 281 3.0 8.0 0.00 0.00 0.00 27 1004.2
20260508214702 63 0 3.0 8.0 0.00 0.00 0.00 27 1004.2
20260508214613 62 296 4.0 10.0 0.00 0.00 0.00 29 1004.1
20260508214608 63 214 4.0 10.0 0.00 0.00 0.00 27 1004.2
20260508213201 62 290 5.0 10.0 0.00 0.00 0.00 27 1004.1
20260508213008 62 298 4.0 9.0 0.00 0.00 0.00 28 1004.3
20260508212201 62 235 4.0 9.0 0.00 0.00 0.00 28 1004.3
20260508211701 62 293 3.0 9.0 0.00 0.00 0.00 27 1004.3
20260508211201 62 211 3.0 8.0 0.00 0.00 0.00 28 1004.4
20260508210657 62 285 4.0 11.0 0.00 0.00 0.00 29 1004.4
20260508210155 62 275 4.0 11.0 0.00 0.00 0.00 29 1004.4
20260508205656 62 222 3.0 9.0 0.00 0.00 0.00 28 1004.4
20260508205154 62 273 2.0 7.0 0.00 0.00 0.00 29 1004.4
20260508204657 62 265 2.0 7.0 0.00 0.00 0.00 29 1004.4
20260508204154 62 266 3.0 8.0 0.00 0.00 0.00 29 1004.5
20260508203655 61 298 3.0 8.0 0.00 0.00 0.00 29 1004.4
20260508203155 61 229 2.0 11.0 0.00 0.00 0.00 30 1004.4
20260508202653 62 269 2.0 11.0 0.00 0.00 0.00 29 1004.8
20260508202153 62 193 4.0 11.0 0.00 0.00 0.00 28 1004.9
20260508201653 62 304 4.0 11.0 0.00 0.00 0.00 28 1004.9
20260508201153 62 283 5.0 11.0 0.00 0.00 0.00 27 1004.9
20260508200954 62 263 5.0 11.0 0.00 0.00 0.00 28 1004.9
20260508200205 62 0 4.0 12.0 0.00 0.00 0.00 30 1004.9
20260508195652 63 288 4.0 12.0 0.00 0.00 0.00 27 1005.0
20260508195152 63 321 3.0 13.0 0.00 0.00 0.00 30 1005.0
20260508194655 63 309 3.0 13.0 0.00 0.00 0.00 27 1005.0
20260508194151 62 293 3.0 9.0 0.00 0.00 0.00 34 1005.4
20260508193646 62 281 3.0 8.0 0.00 0.00 0.00 27 1005.3
20260508193144 63 281 2.0 8.0 0.00 0.00 0.00 29 1005.4
20260508192644 63 273 2.0 7.0 0.00 0.00 0.00 29 1005.4
20260508192141 63 262 3.0 6.0 0.00 0.00 0.00 27 1005.4
20260508191108 62 355 4.0 12.0 0.00 0.00 0.00 32 1005.5
20260508190602 62 244 4.0 11.0 0.00 0.00 0.00 29 1005.5
20260508190107 62 308 4.0 10.0 0.00 0.00 0.00 31 1005.4
20260508185553 61 290 4.0 10.0 0.00 0.00 0.00 32 1005.6
20260508185055 61 308 4.0 9.0 0.00 0.00 0.00 30 1005.6
20260508184555 62 256 4.0 9.0 0.00 0.00 0.00 30 1005.6
20260508184058 62 243 2.0 9.0 0.00 0.00 0.00 30 1005.9
20260508183555 61 320 2.0 7.0 0.00 0.00 0.00 31 1005.9
20260508183052 60 347 3.0 12.0 0.00 0.00 0.00 36 1005.8
20260508182547 60 290 4.0 12.0 0.00 0.00 0.00 31 1005.9
20260508182035 59 111 4.0 11.0 0.00 0.00 0.00 31 1005.9
20260508181512 60 180 3.0 10.0 0.00 0.00 0.00 32 1005.9
20260508181010 60 179 3.0 9.0 0.00 0.00 0.00 30 1006.2
20260508180509 60 273 3.0 6.0 0.00 0.00 0.00 32 1006.2
20260508180008 60 258 4.0 10.0 0.00 0.00 0.00 34 1006.2
20260508175509 60 257 5.0 11.0 0.00 0.00 0.00 31 1006.5
20260508175008 59 292 5.0 13.0 0.00 0.00 0.00 33 1006.4
20260508174509 59 270 4.0 13.0 0.00 0.00 0.00 32 1006.4
20260508174009 59 265 4.0 8.0 0.00 0.00 0.00 32 1006.6
20260508173509 59 279 4.0 9.0 0.00 0.00 0.00 32 1006.6
20260508173318 59 234 4.0 11.0 0.00 0.00 0.00 31 1006.6
20260508172516 60 183 3.0 11.0 0.00 0.00 0.00 32 1006.9
20260508172005 60 259 2.0 11.0 0.00 0.00 0.00 35 1007.0
20260508171505 60 236 5.0 13.0 0.00 0.00 0.00 30 1006.9
20260508171004 60 262 5.0 14.0 0.00 0.00 0.00 31 1007.1
20260508170501 60 262 5.0 14.0 0.00 0.00 0.00 33 1007.1
20260508170309 60 265 5.0 14.0 0.00 0.00 0.00 33 1007.3
20260508165500 60 214 4.0 12.0 0.00 0.00 0.00 31 1007.3
20260508164958 60 279 4.0 13.0 0.00 0.00 0.00 36 1007.3
20260508164501 60 254 4.0 13.0 0.00 0.00 0.00 33 1007.6
20260508163948 59 247 4.0 11.0 0.00 0.00 0.00 33 1007.6
20260508163450 59 5 3.0 9.0 0.00 0.00 0.00 33 1007.6
20260508162949 60 273 2.0 8.0 0.00 0.00 0.00 33 1007.6
20260508162757 59 73 2.0 8.0 0.00 0.00 0.00 32 1007.6
20260508161949 58 40 3.0 11.0 0.00 0.00 0.00 32 1007.5
20260508161452 58 290 3.0 11.0 0.00 0.00 0.00 34 1007.5
20260508160950 58 200 3.0 11.0 0.00 0.00 0.00 34 1007.5
20260508160742 58 235 3.0 11.0 0.00 0.00 0.00 34 1007.5
20260508160250 58 199 5.0 10.0 0.00 0.00 0.00 33 1007.6
20260508155444 58 267 5.0 10.0 0.00 0.00 0.00 34 1007.6
20260508154943 57 217 4.0 10.0 0.00 0.00 0.00 32 1007.6
20260508154445 57 248 4.0 10.0 0.00 0.00 0.00 33 1007.5
20260508153945 57 178 4.0 9.0 0.00 0.00 0.00 32 1007.5
20260508153756 57 263 3.0 9.0 0.00 0.00 0.00 34 1007.6
20260508152946 57 265 3.0 8.0 0.00 0.00 0.00 34 1007.6
20260508152838 57 292 3.0 8.0 0.00 0.00 0.00 39 1007.6
20260508152832 57 292 3.0 8.0 0.00 0.00 0.00 36 1007.6
20260508151427 56 157 4.0 8.0 0.00 0.00 0.00 38 1007.8
20260508150915 56 281 3.0 9.0 0.00 0.00 0.00 39 1007.7
20260508150414 55 271 5.0 12.0 0.00 0.00 0.00 39 1007.7
20260508145913 55 231 6.0 12.0 0.00 0.00 0.00 39 1007.8
20260508145409 55 211 6.0 11.0 0.00 0.00 0.00 38 1007.8
20260508144904 54 161 5.0 11.0 0.00 0.00 0.00 41 1007.7
20260508144404 55 234 4.0 8.0 0.00 0.00 0.00 41 1007.8
20260508144217 54 201 4.0 8.0 0.00 0.00 0.00 41 1007.8
20260508143404 54 293 4.0 10.0 0.00 0.00 0.00 41 1007.8
20260508142857 54 231 4.0 10.0 0.00 0.00 0.00 40 1007.8
20260508142355 53 188 4.0 12.0 0.00 0.00 0.00 42 1007.8
20260508142159 53 286 5.0 12.0 0.00 0.00 0.00 45 1007.7
20260508141355 52 205 5.0 10.0 0.00 0.00 0.00 44 1007.8
20260508140905 52 231 4.0 10.0 0.00 0.00 0.00 47 1007.8
20260508140352 52 279 4.0 10.0 0.00 0.00 0.00 53 1007.8
20260508135854 51 229 3.0 7.0 0.00 0.00 0.00 53 1007.9
20260508135351 51 277 4.0 8.0 0.00 0.00 0.00 54 1007.9
20260508134850 51 214 3.0 8.0 0.00 0.00 0.00 55 1007.9
20260508134345 50 225 3.0 7.0 0.00 0.00 0.00 58 1008.0
20260508133932 50 254 2.0 7.0 0.00 0.00 0.00 59 1008.0
20260508132843 48 221 2.0 5.0 0.00 0.00 0.00 65 1008.0
20260508132312 47 225 2.0 7.0 0.00 0.00 0.00 66 1007.9
20260508131808 46 169 3.0 7.0 0.00 0.00 0.00 68 1007.9
20260508131313 46 230 2.0 6.0 0.00 0.00 0.00 71 1007.8
20260508130807 45 157 2.0 5.0 0.00 0.00 0.00 72 1007.8
20260508130306 44 173 1.0 3.0 0.00 0.00 0.00 75 1007.7
20260508125809 44 211 1.0 4.0 0.00 0.00 0.00 78 1007.8
20260508125310 43 194 1.0 4.0 0.00 0.00 0.00 80 1007.7
20260508124802 42 152 1.0 4.0 0.00 0.00 0.00 82 1007.6
20260508124255 41 157 2.0 4.0 0.00 0.00 0.00 84 1007.6
20260508123753 40 165 1.0 4.0 0.00 0.00 0.00 85 1007.5
20260508123246 39 172 1.0 4.0 0.00 0.00 0.00 87 1007.4
20260508122746 38 177 1.0 4.0 0.00 0.00 0.00 89 1007.3
20260508122242 38 173 0.0 4.0 0.00 0.00 0.00 90 1007.3
20260508121735 37 145 0.0 0.0 0.00 0.00 0.00 92 1007.2
20260508121157 36 145 0.0 0.0 0.00 0.00 0.00 93 1007.0
20260508120654 35 145 0.0 0.0 0.00 0.00 0.00 94 1007.0
20260508120142 34 145 0.0 0.0 0.00 0.00 0.00 95 1006.7
20260508115642 33 145 0.0 0.0 0.00 0.00 0.00 95 1006.7
20260508115054 31 145 0.0 0.0 0.00 0.00 0.00 95 1006.6
20260508114500 30 211 0.0 0.0 0.00 0.00 0.00 95 1006.5
20260508113959 29 211 0.0 0.0 0.00 0.00 0.00 95 1006.4
20260508113756 28 211 0.0 0.0 0.00 0.00 0.00 94 1006.3
20260508113240 27 211 0.0 0.0 0.00 0.00 0.00 94 1006.1
20260508112432 27 211 0.0 0.0 0.00 0.00 0.00 93 1006.0
20260508111913 27 211 0.0 0.0 0.00 0.00 0.00 93 1006.0
20260508111358 27 211 0.0 0.0 0.00 0.00 0.00 93 1005.9
20260508110857 26 211 0.0 0.0 0.00 0.00 0.00 93 1005.9
20260508110357 26 211 0.0 0.0 0.00 0.00 0.00 93 1005.9
20260508105848 26 211 0.0 0.0 0.00 0.00 0.00 93 1005.8
20260508105346 26 211 0.0 0.0 0.00 0.00 0.00 93 1005.8
20260508104802 26 211 0.0 0.0 0.00 0.00 0.00 93 1005.8
20260508104300 26 211 0.0 0.0 0.00 0.00 0.00 93 1005.8
20260508104039 26 211 0.0 0.0 0.00 0.00 0.00 93 1005.8
20260508103242 26 211 0.0 0.0 0.00 0.00 0.00 93 1005.8
20260508102700 26 211 0.0 0.0 0.00 0.00 0.00 93 1005.9
20260508102200 26 211 0.0 0.0 0.00 0.00 0.00 93 1005.9
20260508101648 26 211 0.0 0.0 0.00 0.00 0.00 93 1005.9
20260508101101 26 211 0.0 0.0 0.00 0.00 0.00 93 1006.1
20260508100551 26 211 0.0 0.0 0.00 0.00 0.00 93 1006.1
20260508100249 26 211 0.0 0.0 0.00 0.00 0.00 93 1006.1
20260508095451 26 211 0.0 0.0 0.00 0.00 0.00 93 1006.0
20260508094946 26 211 0.0 0.0 0.00 0.00 0.00 93 1006.0
20260508094444 26 211 0.0 0.0 0.00 0.00 0.00 93 1006.2
20260508093907 26 211 0.0 0.0 0.00 0.00 0.00 93 1006.2
20260508093246 26 211 0.0 0.0 0.00 0.00 0.00 93 1006.2
20260508092745 26 211 0.0 0.0 0.00 0.00 0.00 93 1006.3
20260508092243 26 211 0.0 0.0 0.00 0.00 0.00 93 1006.3
20260508091705 26 211 0.0 0.0 0.00 0.00 0.00 93 1006.3
20260508091217 27 211 0.0 0.0 0.00 0.00 0.00 93 1006.3
20260508091207 27 211 0.0 0.0 0.00 0.00 0.00 93 1006.3
20260508090150 27 211 0.0 0.0 0.00 0.00 0.00 92 1006.3
20260508085644 27 211 0.0 0.0 0.00 0.00 0.00 92 1006.5
20260508085145 27 211 0.0 0.0 0.00 0.00 0.00 92 1006.5
20260508084553 27 211 0.0 0.0 0.00 0.00 0.00 92 1006.5
20260508084053 27 211 0.0 0.0 0.00 0.00 0.00 92 1006.5
20260508083554 27 211 0.0 0.0 0.00 0.00 0.00 92 1006.5
20260508083049 27 211 0.0 0.0 0.00 0.00 0.00 92 1006.5
20260508082455 27 211 0.0 0.0 0.00 0.00 0.00 92 1006.5
20260508081901 27 211 0.0 0.0 0.00 0.00 0.00 92 1006.5
20260508081403 28 211 0.0 0.0 0.00 0.00 0.00 92 1006.7
20260508080755 27 211 0.0 0.0 0.00 0.00 0.00 92 1006.6
20260508080246 28 211 0.0 0.0 0.00 0.00 0.00 92 1006.7
20260508075745 28 211 0.0 0.0 0.00 0.00 0.00 92 1006.7
20260508075525 28 211 0.0 0.0 0.00 0.00 0.00 92 1006.7
20260508074742 28 211 0.0 0.0 0.00 0.00 0.00 91 1006.7
20260508074525 28 211 0.0 0.0 0.00 0.00 0.00 91 1006.7
20260508073701 28 211 0.0 0.0 0.00 0.00 0.00 91 1006.7
20260508073150 28 211 0.0 0.0 0.00 0.00 0.00 91 1006.7
20260508072927 28 211 0.0 0.0 0.00 0.00 0.00 91 1006.9
20260508072055 28 211 0.0 0.0 0.00 0.00 0.00 91 1006.9
20260508071553 29 211 0.0 0.0 0.00 0.00 0.00 91 1006.9
20260508071023 29 211 0.0 0.0 0.00 0.00 0.00 90 1006.9
20260508070234 29 211 0.0 0.0 0.00 0.00 0.00 90 1007.1
20260508065359 29 211 0.0 0.0 0.00 0.00 0.00 90 1007.1
20260508064801 29 211 0.0 0.0 0.00 0.00 0.00 90 1007.1
20260508064253 29 211 0.0 0.0 0.00 0.00 0.00 90 1007.1
20260508063744 29 211 0.0 0.0 0.00 0.00 0.00 90 1007.1
20260508063152 30 211 0.0 0.0 0.00 0.00 0.00 90 1007.1
20260508062603 30 211 0.0 0.0 0.00 0.00 0.00 89 1007.2
20260508062102 30 211 0.0 0.0 0.00 0.00 0.00 89 1007.2
20260508061558 30 211 0.0 0.0 0.00 0.00 0.00 89 1007.2
20260508061050 30 211 0.0 0.0 0.00 0.00 0.00 88 1007.2
20260508060821 30 211 0.0 0.0 0.00 0.00 0.00 88 1007.2
20260508060005 31 211 0.0 0.0 0.00 0.00 0.00 88 1007.2
20260508055501 31 211 0.0 0.0 0.00 0.00 0.00 88 1007.3
20260508054951 31 211 0.0 0.0 0.00 0.00 0.00 88 1007.3
20260508054449 31 211 0.0 0.0 0.00 0.00 0.00 87 1007.3
20260508053948 31 211 0.0 0.0 0.00 0.00 0.00 87 1007.3
20260508053355 32 211 0.0 0.0 0.00 0.00 0.00 87 1007.4
20260508052745 32 211 0.0 0.0 0.00 0.00 0.00 87 1007.4
20260508052241 32 211 0.0 0.0 0.00 0.00 0.00 86 1007.4
20260508051956 33 211 0.0 1.0 0.00 0.00 0.00 86 1007.4
20260508051424 33 211 0.0 2.0 0.00 0.00 0.00 86 1007.4
20260508050556 33 211 0.0 2.0 0.00 0.00 0.00 86 1007.4
20260508045553 34 211 0.0 0.0 0.00 0.00 0.00 85 1007.4
20260508045053 34 211 0.0 0.0 0.00 0.00 0.00 85 1007.5
20260508044747 35 211 0.0 0.0 0.00 0.00 0.00 84 1007.4
20260508043937 35 211 0.0 0.0 0.00 0.00 0.00 84 1007.4
20260508043410 36 211 0.0 0.0 0.00 0.00 0.00 83 1007.5
20260508042854 36 211 0.0 0.0 0.00 0.00 0.00 83 1007.5
20260508042250 37 211 0.0 1.0 0.00 0.00 0.00 83 1007.5
20260508041745 37 211 1.0 2.0 0.00 0.00 0.00 82 1007.6
20260508041239 37 211 1.0 2.0 0.00 0.00 0.00 82 1007.6
20260508040735 38 211 0.0 2.0 0.00 0.00 0.00 81 1007.6
20260508040155 38 211 0.0 1.0 0.00 0.00 0.00 81 1007.6
20260508035658 38 211 0.0 0.0 0.00 0.00 0.00 81 1008.0
20260508035056 39 211 0.0 1.0 0.00 0.00 0.00 81 1008.0
20260508034554 39 211 0.0 1.0 0.00 0.00 0.00 81 1008.0
20260508034053 39 211 0.0 0.0 0.00 0.00 0.00 81 1007.9
20260508033547 39 211 0.0 0.0 0.00 0.00 0.00 81 1007.9
20260508033053 39 211 0.0 0.0 0.00 0.00 0.00 81 1007.9
20260508032537 39 211 0.0 0.0 0.00 0.00 0.00 81 1008.2
20260508032003 39 211 0.0 0.0 0.00 0.00 0.00 80 1008.2
20260508031729 39 211 0.0 0.0 0.00 0.00 0.00 79 1008.2
20260508030958 39 211 0.0 0.0 0.00 0.00 0.00 79 1008.2
20260508030443 39 211 0.0 0.0 0.00 0.00 0.00 79 1008.2
20260508025934 39 211 0.0 0.0 0.00 0.00 0.00 79 1007.9
20260508025359 40 211 0.0 0.0 0.00 0.00 0.00 78 1008.0
20260508024851 40 211 0.0 0.0 0.00 0.00 0.00 76 1008.0
20260508024316 40 211 0.0 0.0 0.00 0.00 0.00 76 1008.1
20260508023756 40 211 0.0 0.0 0.00 0.00 0.00 75 1008.1
20260508023250 40 211 0.0 0.0 0.00 0.00 0.00 75 1008.1
20260508022747 40 211 0.0 0.0 0.00 0.00 0.00 74 1007.8
20260508022242 41 211 0.0 1.0 0.00 0.00 0.00 75 1007.8
20260508021932 41 211 0.0 1.0 0.00 0.00 0.00 74 1007.8
20260508021729 41 211 0.0 0.0 0.00 0.00 0.00 73 1007.8
20260508021433 41 211 0.0 0.0 0.00 0.00 0.00 73 1007.8
20260508021252 41 211 0.0 0.0 0.00 0.00 0.00 72 1007.9
20260508020113 41 211 0.0 0.0 0.00 0.00 0.00 71 1007.9
20260508015620 41 211 0.0 0.0 0.00 0.00 0.00 70 1007.8
20260508015112 42 211 0.0 0.0 0.00 0.00 0.00 69 1007.8
20260508014922 42 211 0.0 0.0 0.00 0.00 0.00 68 1007.8
20260508014614 42 211 0.0 0.0 0.00 0.00 0.00 69 1007.8
20260508013017 43 211 0.0 0.0 0.00 0.00 0.00 64 1007.5
20260508012707 44 211 0.0 0.0 0.00 0.00 0.00 63 1007.6
20260508012400 44 211 0.0 0.0 0.00 0.00 0.00 62 1007.6
20260508011321 44 211 0.0 0.0 0.00 0.00 0.00 61 1007.6
20260508010808 45 211 0.0 0.0 0.00 0.00 0.00 60 1007.7
20260508010257 45 211 0.0 2.0 0.00 0.00 0.00 60 1007.7
20260508005827 45 211 1.0 2.0 0.00 0.00 0.00 59 1007.6
20260508005253 45 211 1.0 2.0 0.00 0.00 0.00 58 1007.6
20260508004749 46 210 1.0 3.0 0.00 0.00 0.00 57 1007.6